Location: DARK SKY Beskydy - Park tmavé oblohy, www.darkskybeskydy.cz
(49.4926°N, 18.5016°E)
Time: 15:24:26
(UTC+02:00)

Altair - Visible Passes

Search period start: 17 July 2024 00:00
Search period end: 27 July 2024 00:00
Orbit: 1502 x 1681 km, 47.2° (Epoch: 16 July)

Date Brightness Start Highest point End Pass type
(mag) Time Alt. Az. Time Alt. Az. Time Alt. Az.
17 Jul 7.5 01:13:11 10° WNW 01:21:55 51° SSW 01:30:48 10° SE visible
17 Jul 8.4 03:18:52 10° W 03:24:58 20° SW 03:31:09 10° S visible
17 Jul 7.4 22:43:25 10° W 22:52:37 78° S 23:01:50 10° E visible
18 Jul 7.5 00:47:59 10° W 00:56:48 54° SSW 01:05:43 10° SE visible
18 Jul 8.3 02:53:27 10° W 02:59:55 22° SW 03:04:37 15° SSW visible
18 Jul 7.4 22:18:13 10° W 22:27:26 79° S 22:36:38 10° E visible
19 Jul 7.5 00:22:47 10° W 00:31:40 57° SSW 00:39:34 14° SE visible
19 Jul 8.3 02:28:06 10° W 02:34:52 24° SW 02:37:23 21° SSW visible
19 Jul 7.4 21:53:01 10° W 22:02:15 79° S 22:11:26 10° E visible
19 Jul 7.4 23:57:35 10° W 00:06:31 59° SSW 00:13:48 17° SE visible
20 Jul 8.2 02:02:45 10° W 02:09:49 26° SW 02:11:41 24° SSW visible
20 Jul 7.5 21:27:49 10° W 21:37:04 79° S 21:46:14 10° E visible
20 Jul 7.4 23:32:24 10° W 23:41:23 61° SSW 23:48:34 18° SE visible
21 Jul 8.1 01:37:26 10° W 01:44:46 28° SW 01:46:29 26° SSW visible
21 Jul 7.4 23:07:12 10° W 23:16:14 64° SSW 23:23:38 17° SE visible
22 Jul 8.1 01:12:09 10° W 01:19:41 30° SW 01:21:34 28° SSW visible
22 Jul 7.4 22:42:00 10° W 22:51:04 66° SSW 22:58:53 15° ESE visible
23 Jul 8.0 00:46:52 10° W 00:54:37 32° SW 00:56:50 29° SSW visible
23 Jul 7.4 22:16:48 10° W 22:25:55 68° SSW 22:34:16 13° ESE visible
24 Jul 8.0 00:21:37 10° W 00:29:33 34° SW 00:32:13 29° S visible
24 Jul 7.5 21:51:35 10° W 22:00:45 70° SSW 22:09:45 10° ESE visible
24 Jul 8.0 23:56:22 10° W 00:04:28 37° SW 00:07:43 29° S visible
25 Jul 7.5 21:26:23 10° W 21:35:35 72° SSW 21:44:42 10° ESE visible
25 Jul 7.9 23:31:07 10° W 23:39:22 39° SW 23:43:17 27° S visible
26 Jul 9.0 01:39:18 10° WSW 01:41:15 11° WSW 01:41:15 11° WSW visible
26 Jul 7.5 21:01:11 10° W 21:10:25 73° SSW 21:19:32 10° ESE visible
26 Jul 7.9 23:05:53 10° WNW 23:14:16 42° SW 23:18:55 25° SSE visible
